contact:dominique.lefevre@mio.osupytheas.fr, maurice.libes@osupytheas.fr, didier.mallarino@osupytheas.fr
Project:EMSO http://www.emso-fr.org/EMSO-France
Depth: 2436.0 m
Title:EMSO Ligure Ouest : Data MII capteur AQUADOPP
Date,Latitude,Longitude,X_East,Y_North,Z_Up,Amplitude_X,Amplitude_Y,Amplitude_Z,Batterie,SoundSpeed,Heading,Pitch,Roll,Pressure,TIS,Speed,Direction
, degrees North, degrees East, m.s-1, m.s-1,m.s-1, 1, 1, 1, Volt, m.s-1, degree, degree, degree, dbar, degree_C, m.s-1, degree
2021-03-21T00:04:02,42.805,6.029,-0.035,0.013,0.017,108.0,108.0,105.0,13.3,1505.2,327.0,-0.8,1.8,2470.309,13.28,0.037,290.4
2021-03-21T00:07:02,42.805,6.029,-0.055,0.007,0.016,110.0,108.0,107.0,13.4,1505.2,327.5,-0.8,1.8,2470.267,13.28,0.055,277.3
2021-03-21T00:10:03,42.805,6.029,-0.038,0.008,-0.03,109.0,108.0,105.0,13.4,1505.2,327.5,-0.7,1.8,2470.257,13.28,0.038,281.9
2021-03-21T00:13:03,42.805,6.029,-0.055,0.012,0.011,109.0,109.0,106.0,13.4,1505.2,327.4,-0.7,1.8,2470.256,13.28,0.056,282.3
2021-03-21T00:16:02,42.805,6.029,-0.048,0.007,-0.015,109.0,108.0,106.0,13.3,1505.2,327.1,-0.8,1.8,2470.256,13.28,0.048,278.3
2021-03-21T00:19:02,42.805,6.029,-0.04,0.005,-0.015,111.0,108.0,106.0,13.3,1505.2,327.2,-0.7,1.8,2470.238,13.28,0.04,277.1
2021-03-21T00:22:02,42.805,6.029,-0.042,0.003,0.012,110.0,107.0,106.0,13.4,1505.2,327.5,-0.7,1.8,2470.217,13.28,0.042,274.1
2021-03-21T00:25:03,42.805,6.029,-0.036,0.017,-0.02,110.0,108.0,105.0,13.4,1505.2,327.0,-0.8,1.9,2470.238,13.28,0.039,295.3
2021-03-21T00:28:03,42.805,6.029,-0.026,0.013,0.013,108.0,108.0,106.0,13.3,1505.2,327.7,-0.7,1.8,2470.231,13.28,0.029,296.6
2021-03-21T00:31:02,42.805,6.029,-0.05,0.026,0.0,108.0,107.0,106.0,13.4,1505.2,327.1,-0.7,1.8,2470.255,13.28,0.056,297.5
2021-03-21T00:34:03,42.805,6.029,-0.025,0.016,0.011,109.0,108.0,104.0,13.3,1505.2,327.5,-0.7,1.8,2470.226,13.28,0.029,302.6
2021-03-21T00:37:03,42.805,6.029,-0.031,0.041,0.027,109.0,108.0,106.0,13.4,1505.2,327.2,-0.7,1.8,2470.247,13.28,0.051,322.9
2021-03-21T00:40:03,42.805,6.029,-0.047,0.006,-0.001,109.0,109.0,105.0,13.4,1505.2,327.5,-0.8,1.8,2470.236,13.28,0.047,277.3
2021-03-21T00:43:02,42.805,6.029,-0.038,-0.018,-0.002,109.0,110.0,105.0,13.4,1505.2,327.6,-0.7,1.8,2470.217,13.28,0.042,244.7
2021-03-21T00:46:03,42.805,6.029,-0.035,0.008,-0.003,108.0,109.0,106.0,13.4,1505.2,327.1,-0.8,1.8,2470.186,13.28,0.035,282.9
2021-03-21T00:49:03,42.805,6.029,-0.038,0.015,0.01,109.0,110.0,105.0,13.4,1505.2,327.6,-0.7,1.8,2470.217,13.29,0.04,291.5
2021-03-21T00:52:03,42.805,6.029,-0.05,0.033,0.01,108.0,107.0,104.0,13.3,1505.2,327.3,-0.8,1.8,2470.19,13.28,0.059,303.4
2021-03-21T00:55:03,42.805,6.029,-0.053,0.022,-0.002,110.0,108.0,106.0,13.4,1505.2,327.6,-0.8,1.8,2470.188,13.28,0.057,292.5
2021-03-21T00:58:03,42.805,6.029,-0.033,0.012,0.037,109.0,106.0,106.0,13.4,1505.2,327.4,-0.8,1.8,2470.174,13.28,0.035,290.0
2021-03-21T01:04:02,42.805,6.029,-0.029,0.022,-0.013,108.0,108.0,105.0,13.4,1505.2,327.7,-0.8,1.8,2470.251,13.28,0.036,307.2
2021-03-21T01:07:02,42.805,6.029,-0.057,0.007,0.002,108.0,108.0,106.0,13.3,1505.2,326.5,-0.8,1.8,2470.227,13.28,0.057,277.0
2021-03-21T01:10:03,42.805,6.029,-0.064,0.018,0.0,108.0,108.0,106.0,13.4,1505.2,327.2,-0.7,1.9,2470.195,13.28,0.066,285.7
2021-03-21T01:13:03,42.805,6.029,-0.065,0.014,0.013,109.0,107.0,106.0,13.4,1505.2,327.1,-0.8,1.8,2470.157,13.28,0.066,282.2
2021-03-21T01:16:03,42.805,6.029,-0.035,0.022,-0.031,109.0,108.0,105.0,13.3,1505.2,327.3,-0.8,1.8,2470.191,13.28,0.041,302.2
2021-03-21T01:19:03,42.805,6.029,-0.04,0.029,0.002,110.0,109.0,105.0,13.4,1505.2,327.5,-0.7,1.8,2470.228,13.28,0.049,305.9
2021-03-21T01:22:02,42.805,6.029,-0.039,0.024,0.031,109.0,109.0,106.0,13.4,1505.2,327.0,-0.7,1.8,2470.173,13.28,0.045,301.6
2021-03-21T01:25:03,42.805,6.029,-0.044,0.017,-0.015,109.0,108.0,106.0,13.4,1505.2,327.5,-0.8,1.8,2470.159,13.28,0.047,291.1
2021-03-21T01:28:03,42.805,6.029,-0.058,0.028,-0.002,108.0,107.0,105.0,13.4,1505.2,327.2,-0.8,1.8,2470.172,13.28,0.064,295.8
2021-03-21T01:31:03,42.805,6.029,-0.027,0.019,-0.012,110.0,108.0,105.0,13.4,1505.2,326.4,-0.8,1.8,2470.156,13.28,0.033,305.1
2021-03-21T01:34:03,42.805,6.029,-0.035,0.026,0.042,107.0,107.0,105.0,13.4,1505.2,327.3,-0.7,1.8,2470.173,13.29,0.043,306.6
2021-03-21T01:37:03,42.805,6.029,-0.023,0.012,0.004,107.0,108.0,106.0,13.4,1505.2,327.0,-0.7,1.8,2470.218,13.29,0.025,297.6
2021-03-21T01:40:03,42.805,6.029,-0.043,0.021,0.024,107.0,109.0,105.0,13.4,1505.2,327.3,-0.8,1.8,2470.172,13.28,0.047,296.0
2021-03-21T01:43:03,42.805,6.029,-0.042,0.022,0.024,109.0,108.0,105.0,13.4,1505.2,326.8,-0.8,1.8,2470.22,13.28,0.047,297.6
2021-03-21T01:46:03,42.805,6.029,-0.05,0.013,0.007,111.0,110.0,105.0,13.4,1505.2,327.1,-0.7,1.9,2470.167,13.29,0.051,284.6
2021-03-21T01:49:03,42.805,6.029,-0.052,0.011,-0.001,108.0,108.0,105.0,13.4,1505.2,327.3,-0.8,1.8,2470.17,13.29,0.053,281.9
2021-03-21T01:52:02,42.805,6.029,-0.044,0.023,0.013,109.0,107.0,105.0,13.4,1505.2,327.6,-0.7,1.8,2470.173,13.29,0.049,297.6
2021-03-21T01:55:03,42.805,6.029,-0.022,0.022,0.016,108.0,108.0,106.0,13.4,1505.2,327.4,-0.7,1.9,2470.168,13.29,0.031,315.0
2021-03-21T01:58:03,42.805,6.029,-0.043,0.015,0.022,112.0,110.0,105.0,13.4,1505.2,327.0,-0.8,1.8,2470.122,13.28,0.045,289.2
2021-03-21T02:04:02,42.805,6.029,-0.045,0.035,-0.002,108.0,106.0,105.0,13.3,1505.2,327.2,-0.7,1.8,2470.209,13.28,0.057,307.9
2021-03-21T02:07:03,42.805,6.029,-0.02,0.032,0.042,109.0,107.0,106.0,13.4,1505.2,327.4,-0.7,1.8,2470.219,13.28,0.037,328.0
2021-03-21T02:10:03,42.805,6.029,-0.029,0.02,0.039,109.0,107.0,106.0,13.3,1505.2,327.7,-0.7,1.9,2470.154,13.28,0.035,304.6
2021-03-21T02:13:03,42.805,6.029,-0.042,0.031,0.012,108.0,108.0,106.0,13.4,1505.2,327.2,-0.8,1.8,2470.129,13.28,0.052,306.4
2021-03-21T02:16:03,42.805,6.029,-0.039,0.014,0.0,109.0,109.0,105.0,13.4,1505.2,327.2,-0.7,1.8,2470.178,13.28,0.041,289.7
2021-03-21T02:19:03,42.805,6.029,-0.042,0.036,0.011,108.0,108.0,105.0,13.3,1505.2,327.8,-0.7,1.8,2470.164,13.28,0.055,310.6
2021-03-21T02:22:03,42.805,6.029,-0.024,0.006,-0.01,108.0,109.0,104.0,13.4,1505.2,327.2,-0.8,1.8,2470.183,13.28,0.024,284.0
2021-03-21T02:25:03,42.805,6.029,-0.036,0.015,0.023,108.0,108.0,105.0,13.4,1505.2,327.8,-0.8,1.8,2470.167,13.28,0.039,292.6
2021-03-21T02:28:03,42.805,6.029,-0.038,0.028,0.032,108.0,109.0,106.0,13.4,1505.2,326.7,-0.8,1.9,2470.19,13.28,0.047,306.4
2021-03-21T02:31:03,42.805,6.029,-0.038,0.034,0.023,108.0,108.0,106.0,13.4,1505.2,327.3,-0.7,1.8,2470.166,13.28,0.05,311.8
2021-03-21T02:34:03,42.805,6.029,-0.029,0.028,0.011,108.0,107.0,105.0,13.4,1505.2,327.0,-0.8,1.8,2470.21,13.28,0.04,314.0
2021-03-21T02:37:03,42.805,6.029,-0.024,0.017,0.027,109.0,106.0,106.0,13.3,1505.2,327.1,-0.7,1.8,2470.179,13.28,0.029,305.3
2021-03-21T02:40:03,42.805,6.029,-0.044,0.014,0.024,109.0,108.0,107.0,13.4,1505.2,327.0,-0.8,1.8,2470.155,13.28,0.046,287.6
2021-03-21T02:43:03,42.805,6.029,-0.024,0.033,0.028,109.0,108.0,105.0,13.3,1505.2,327.1,-0.7,1.8,2470.183,13.29,0.04,324.0
2021-03-21T02:46:03,42.805,6.029,-0.021,0.017,0.02,108.0,108.0,106.0,13.3,1505.2,327.2,-0.7,1.8,2470.194,13.29,0.027,309.0
2021-03-21T02:49:03,42.805,6.029,-0.014,0.013,0.009,108.0,108.0,106.0,13.4,1505.2,327.4,-0.8,1.8,2470.196,13.29,0.019,312.9
2021-03-21T02:52:03,42.805,6.029,-0.038,0.017,-0.007,109.0,109.0,105.0,13.3,1505.2,327.4,-0.8,1.8,2470.183,13.29,0.041,294.1
2021-03-21T02:55:03,42.805,6.029,-0.039,0.029,0.004,108.0,110.0,103.0,13.4,1505.2,327.0,-0.8,1.8,2470.206,13.28,0.048,306.6
2021-03-21T02:58:03,42.805,6.029,-0.022,0.019,0.005,109.0,108.0,105.0,13.3,1505.2,327.1,-0.8,1.8,2470.192,13.29,0.029,310.8
2021-03-21T03:04:02,42.805,6.029,-0.038,0.023,0.001,109.0,109.0,106.0,13.4,1505.2,327.0,-0.7,1.8,2470.232,13.28,0.044,301.2
2021-03-21T03:07:03,42.805,6.029,-0.035,0.02,0.004,109.0,110.0,106.0,13.4,1505.2,326.9,-0.8,1.8,2470.166,13.28,0.04,299.7
2021-03-21T03:10:03,42.805,6.029,-0.027,0.016,0.012,110.0,107.0,106.0,13.4,1505.2,327.6,-0.7,1.8,2470.195,13.28,0.031,300.7
2021-03-21T03:13:03,42.805,6.029,-0.034,0.017,0.016,110.0,108.0,106.0,13.4,1505.2,327.3,-0.8,1.8,2470.195,13.28,0.038,296.6
2021-03-21T03:16:03,42.805,6.029,-0.047,0.016,-0.024,109.0,109.0,105.0,13.4,1505.2,327.0,-0.8,1.8,2470.21,13.28,0.049,288.8
2021-03-21T03:19:03,42.805,6.029,-0.019,0.019,-0.007,110.0,108.0,105.0,13.3,1505.2,327.2,-0.8,1.8,2470.186,13.28,0.026,315.0
2021-03-21T03:22:03,42.805,6.029,-0.033,0.022,0.007,109.0,108.0,105.0,13.4,1505.2,327.2,-0.8,1.8,2470.168,13.28,0.039,303.7
2021-03-21T03:25:03,42.805,6.029,-0.032,0.014,0.026,110.0,110.0,106.0,13.4,1505.2,327.0,-0.8,1.8,2470.144,13.28,0.034,293.6
2021-03-21T03:28:03,42.805,6.029,-0.036,0.009,0.009,109.0,109.0,106.0,13.4,1505.2,327.0,-0.7,1.8,2470.178,13.29,0.037,284.0
2021-03-21T03:31:03,42.805,6.029,-0.027,0.021,0.006,108.0,110.0,106.0,13.4,1505.2,327.7,-0.7,1.8,2470.176,13.29,0.034,307.9
2021-03-21T03:34:03,42.805,6.029,-0.026,0.019,-0.015,108.0,109.0,105.0,13.4,1505.2,327.5,-0.7,1.8,2470.23,13.29,0.032,306.2
2021-03-21T03:37:03,42.805,6.029,-0.021,0.011,0.031,110.0,109.0,108.0,13.4,1505.2,327.3,-0.8,1.8,2470.196,13.29,0.023,297.6
2021-03-21T03:40:03,42.805,6.029,-0.018,0.01,-0.011,110.0,109.0,107.0,13.4,1505.2,327.2,-0.8,1.8,2470.162,13.29,0.02,299.1
2021-03-21T03:43:03,42.805,6.029,-0.026,0.008,-0.003,109.0,108.0,106.0,13.4,1505.2,327.4,-0.8,1.8,2470.164,13.29,0.027,287.1
2021-03-21T03:46:03,42.805,6.029,-0.039,0.004,-0.012,110.0,109.0,107.0,13.3,1505.2,327.5,-0.7,1.8,2470.173,13.29,0.039,275.9
2021-03-21T03:49:03,42.805,6.029,-0.029,0.01,0.002,110.0,108.0,106.0,13.4,1505.2,327.1,-0.8,1.8,2470.177,13.29,0.03,289.0
2021-03-21T03:52:03,42.805,6.029,-0.042,0.021,0.006,109.0,108.0,105.0,13.4,1505.2,327.8,-0.7,1.8,2470.207,13.29,0.046,296.6
2021-03-21T03:55:03,42.805,6.029,-0.022,0.022,0.039,108.0,108.0,106.0,13.4,1505.2,327.7,-0.7,1.8,2470.189,13.29,0.031,315.0
2021-03-21T03:58:03,42.805,6.029,-0.025,0.01,0.005,108.0,107.0,105.0,13.4,1505.2,326.9,-0.8,1.8,2470.203,13.29,0.026,291.8
2021-03-21T04:04:02,42.805,6.029,-0.02,0.02,0.027,111.0,107.0,104.0,13.4,1505.2,327.4,-0.8,1.8,2470.217,13.28,0.028,315.0
2021-03-21T04:07:03,42.805,6.029,-0.03,0.028,0.008,109.0,106.0,105.0,13.4,1505.2,327.0,-0.8,1.8,2470.188,13.28,0.041,313.0
2021-03-21T04:10:03,42.805,6.029,-0.04,0.02,0.008,108.0,108.0,105.0,13.3,1505.2,327.7,-0.8,1.8,2470.23,13.28,0.044,296.6
2021-03-21T04:13:03,42.805,6.029,-0.026,0.013,0.002,107.0,108.0,104.0,13.4,1505.2,327.5,-0.7,1.8,2470.22,13.28,0.029,296.6
2021-03-21T04:16:03,42.805,6.029,-0.038,0.02,0.024,107.0,107.0,105.0,13.4,1505.2,327.2,-0.7,1.8,2470.208,13.28,0.042,297.8
2021-03-21T04:19:03,42.805,6.029,-0.032,0.024,0.033,107.0,109.0,105.0,13.3,1505.2,327.5,-0.7,1.8,2470.197,13.28,0.04,306.9
2021-03-21T04:22:03,42.805,6.029,-0.022,0.011,0.03,108.0,108.0,105.0,13.4,1505.2,326.8,-0.8,1.8,2470.177,13.29,0.024,296.6
2021-03-21T04:25:03,42.805,6.029,-0.061,0.016,-0.003,108.0,109.0,105.0,13.3,1505.2,327.6,-0.7,1.8,2470.199,13.28,0.063,284.7
2021-03-21T04:28:03,42.805,6.029,-0.033,0.006,-0.039,110.0,110.0,106.0,13.4,1505.2,327.4,-0.8,1.8,2470.21,13.29,0.033,280.3
2021-03-21T04:31:03,42.805,6.029,-0.051,0.01,0.014,109.0,108.0,107.0,13.3,1505.2,327.2,-0.8,1.8,2470.166,13.29,0.051,281.1
2021-03-21T04:34:03,42.805,6.029,-0.056,0.01,-0.024,109.0,108.0,105.0,13.4,1505.2,326.8,-0.8,1.8,2470.165,13.29,0.056,280.1
2021-03-21T04:37:03,42.805,6.029,-0.013,0.009,0.018,106.0,108.0,105.0,13.3,1505.2,327.3,-0.8,1.8,2470.192,13.29,0.015,304.7
2021-03-21T04:40:03,42.805,6.029,-0.046,0.017,0.016,107.0,109.0,105.0,13.3,1505.2,327.7,-0.7,1.8,2470.215,13.29,0.049,290.3
2021-03-21T04:43:03,42.805,6.029,-0.042,0.013,0.025,108.0,108.0,105.0,13.3,1505.2,327.3,-0.7,1.9,2470.232,13.29,0.043,287.2
2021-03-21T04:46:03,42.805,6.029,-0.023,0.009,0.005,109.0,110.0,106.0,13.4,1505.2,327.6,-0.8,1.8,2470.195,13.29,0.024,291.4
2021-03-21T04:49:03,42.805,6.029,-0.032,0.007,-0.005,109.0,108.0,106.0,13.4,1505.2,327.3,-0.7,1.9,2470.195,13.29,0.032,282.3
2021-03-21T04:52:03,42.805,6.029,-0.044,-0.005,-0.01,108.0,109.0,105.0,13.4,1505.2,327.4,-0.8,1.8,2470.199,13.29,0.044,263.5
2021-03-21T04:55:03,42.805,6.029,-0.039,0.0,0.009,108.0,108.0,104.0,13.4,1505.2,327.5,-0.7,1.8,2470.191,13.29,0.039,270.0
2021-03-21T04:58:03,42.805,6.029,-0.043,0.005,0.021,108.0,109.0,105.0,13.4,1505.2,327.7,-0.8,1.8,2470.232,13.29,0.043,276.6
2021-03-21T05:04:03,42.805,6.029,-0.031,0.02,0.019,108.0,108.0,104.0,13.4,1505.2,327.0,-0.7,1.8,2470.269,13.28,0.036,302.8
2021-03-21T05:07:03,42.805,6.029,-0.024,0.007,0.014,109.0,109.0,106.0,13.4,1505.2,327.1,-0.7,1.8,2470.206,13.28,0.025,286.3
2021-03-21T05:10:03,42.805,6.029,-0.035,0.017,-0.02,110.0,108.0,106.0,13.4,1505.2,327.2,-0.8,1.9,2470.169,13.28,0.038,295.9
2021-03-21T05:13:03,42.805,6.029,-0.049,-0.002,-0.003,108.0,108.0,106.0,13.4,1505.2,327.4,-0.8,1.8,2470.186,13.28,0.049,267.7
2021-03-21T05:16:03,42.805,6.029,-0.035,0.009,0.022,108.0,109.0,106.0,13.4,1505.2,327.2,-0.8,1.9,2470.219,13.28,0.036,284.4
2021-03-21T05:19:03,42.805,6.029,-0.047,0.024,0.035,107.0,108.0,106.0,13.4,1505.2,327.1,-0.8,1.8,2470.212,13.29,0.052,297.0
2021-03-21T05:22:03,42.805,6.029,-0.028,0.008,0.014,108.0,107.0,104.0,13.4,1505.2,327.1,-0.7,1.8,2470.218,13.29,0.029,285.9
2021-03-21T05:25:03,42.805,6.029,-0.034,0.006,-0.014,107.0,108.0,105.0,13.3,1505.2,327.3,-0.7,1.8,2470.202,13.29,0.034,280.0
2021-03-21T05:28:03,42.805,6.029,-0.043,-0.002,-0.005,108.0,106.0,103.0,13.4,1505.2,327.4,-0.8,1.8,2470.172,13.29,0.043,267.3
2021-03-21T05:31:03,42.805,6.029,-0.035,0.012,-0.014,107.0,108.0,104.0,13.4,1505.2,327.2,-0.8,1.8,2470.21,13.29,0.037,288.9
2021-03-21T05:34:03,42.805,6.029,-0.039,0.033,0.026,108.0,107.0,104.0,13.4,1505.2,327.2,-0.8,1.8,2470.217,13.29,0.051,310.2
2021-03-21T05:37:03,42.805,6.029,-0.063,0.031,0.039,109.0,108.0,104.0,13.3,1505.2,327.6,-0.8,1.9,2470.215,13.29,0.07,296.2
2021-03-21T05:40:03,42.805,6.029,-0.048,0.025,-0.01,109.0,108.0,105.0,13.4,1505.2,326.8,-0.7,1.8,2470.171,13.29,0.054,297.5
2021-03-21T05:43:03,42.805,6.029,-0.028,0.012,-0.014,109.0,109.0,105.0,13.4,1505.2,327.6,-0.8,1.9,2470.201,13.29,0.03,293.2
2021-03-21T05:46:03,42.805,6.029,-0.032,0.011,-0.01,108.0,108.0,106.0,13.4,1505.2,327.0,-0.7,1.9,2470.222,13.29,0.033,289.0
2021-03-21T05:49:03,42.805,6.029,-0.033,0.013,0.014,109.0,108.0,104.0,13.4,1505.2,327.8,-0.7,1.9,2470.169,13.29,0.035,291.5
2021-03-21T05:52:03,42.805,6.029,-0.034,0.023,-0.03,108.0,107.0,105.0,13.3,1505.2,326.7,-0.8,1.8,2470.195,13.29,0.041,304.1
2021-03-21T05:55:03,42.805,6.029,-0.018,0.015,-0.019,107.0,109.0,104.0,13.3,1505.2,327.4,-0.8,1.8,2470.174,13.29,0.023,309.8
2021-03-21T05:58:03,42.805,6.029,-0.043,0.008,0.012,108.0,109.0,104.0,13.4,1505.2,327.3,-0.8,1.8,2470.237,13.29,0.043,280.5
2021-03-21T06:04:03,42.805,6.029,-0.064,0.029,0.0,109.0,107.0,105.0,13.3,1505.2,327.7,-0.8,1.8,2470.226,13.28,0.07,294.4
2021-03-21T06:07:03,42.805,6.029,-0.038,0.006,0.007,108.0,106.0,105.0,13.4,1505.2,327.1,-0.7,1.8,2470.219,13.28,0.038,279.0
2021-03-21T06:10:03,42.805,6.029,-0.039,0.011,0.024,110.0,108.0,105.0,13.4,1505.2,327.0,-0.8,1.8,2470.217,13.28,0.04,285.7
2021-03-21T06:13:03,42.805,6.029,-0.027,0.008,0.02,108.0,107.0,105.0,13.4,1505.2,327.0,-0.8,1.8,2470.196,13.28,0.028,286.5
2021-03-21T06:16:03,42.805,6.029,-0.019,0.022,0.04,107.0,107.0,105.0,13.3,1505.2,327.3,-0.8,1.8,2470.186,13.28,0.029,319.2
2021-03-21T06:19:03,42.805,6.029,-0.015,0.018,0.003,108.0,108.0,105.0,13.4,1505.2,327.1,-0.8,1.9,2470.215,13.28,0.023,320.2
2021-03-21T06:22:03,42.805,6.029,-0.036,0.005,-0.002,109.0,109.0,104.0,13.4,1505.2,327.8,-0.7,1.9,2470.215,13.28,0.036,277.9
2021-03-21T06:25:03,42.805,6.029,-0.045,0.024,-0.007,107.0,107.0,103.0,13.4,1505.2,327.4,-0.7,1.8,2470.195,13.29,0.051,298.1
2021-03-21T06:28:03,42.805,6.029,-0.031,0.014,0.012,108.0,109.0,105.0,13.4,1505.2,327.2,-0.8,1.8,2470.228,13.29,0.034,294.3
2021-03-21T06:31:03,42.805,6.029,-0.021,0.012,0.003,108.0,108.0,106.0,13.4,1505.2,327.1,-0.7,1.9,2470.205,13.29,0.024,299.7
2021-03-21T06:34:03,42.805,6.029,-0.013,0.012,-0.003,110.0,109.0,105.0,13.4,1505.2,327.3,-0.8,1.8,2470.256,13.29,0.017,312.7
2021-03-21T06:37:03,42.805,6.029,-0.022,0.028,0.012,109.0,107.0,105.0,13.3,1505.2,327.7,-0.7,1.8,2470.235,13.29,0.035,321.8
2021-03-21T06:40:03,42.805,6.029,-0.057,0.026,0.018,107.0,107.0,106.0,13.4,1505.2,327.0,-0.8,1.8,2470.223,13.29,0.062,294.5
2021-03-21T06:43:03,42.805,6.029,-0.022,0.029,0.001,108.0,109.0,104.0,13.4,1505.2,327.6,-0.8,1.8,2470.186,13.29,0.036,322.8
2021-03-21T06:46:03,42.805,6.029,-0.029,0.039,0.006,109.0,108.0,104.0,13.4,1505.2,327.3,-0.8,1.8,2470.227,13.29,0.048,323.4
2021-03-21T06:49:03,42.805,6.029,-0.047,0.0,-0.008,107.0,106.0,106.0,13.4,1505.2,327.2,-0.7,1.8,2470.202,13.29,0.047,270.0
2021-03-21T06:52:03,42.805,6.029,-0.03,0.014,0.022,107.0,108.0,105.0,13.4,1505.2,327.0,-0.7,1.8,2470.233,13.29,0.033,295.0
2021-03-21T06:55:03,42.805,6.029,-0.044,0.013,0.013,108.0,108.0,106.0,13.4,1505.2,327.7,-0.7,1.9,2470.214,13.29,0.045,286.5
2021-03-21T06:58:03,42.805,6.029,-0.013,0.017,-0.005,108.0,108.0,106.0,13.4,1505.2,327.4,-0.7,1.8,2470.216,13.29,0.021,322.6
2021-03-21T07:04:03,42.805,6.029,-0.023,-0.001,-0.009,107.0,108.0,105.0,13.3,1505.2,327.3,-0.7,1.8,2470.236,13.28,0.023,267.5
2021-03-21T07:07:03,42.805,6.029,-0.02,-0.006,0.022,109.0,109.0,105.0,13.3,1505.2,327.0,-0.7,1.8,2470.229,13.28,0.02,253.3
2021-03-21T07:10:03,42.805,6.029,-0.048,0.012,0.0,108.0,108.0,105.0,13.3,1505.2,327.0,-0.8,1.8,2470.241,13.28,0.049,284.0
2021-03-21T07:13:03,42.805,6.029,-0.037,0.0,-0.001,109.0,108.0,105.0,13.3,1505.2,327.1,-0.8,1.8,2470.211,13.28,0.037,270.0
2021-03-21T07:16:03,42.805,6.029,-0.039,0.035,0.039,108.0,108.0,104.0,13.4,1505.2,327.0,-0.8,1.8,2470.231,13.29,0.052,311.9
2021-03-21T07:19:03,42.805,6.029,-0.049,0.019,-0.008,108.0,108.0,104.0,13.4,1505.2,327.0,-0.8,1.8,2470.238,13.29,0.052,291.2
2021-03-21T07:22:03,42.805,6.029,-0.037,0.015,-0.02,108.0,107.0,106.0,13.4,1505.2,327.0,-0.8,1.8,2470.215,13.29,0.039,292.1
2021-03-21T07:25:03,42.805,6.029,-0.052,0.02,0.016,108.0,108.0,106.0,13.3,1505.2,327.3,-0.7,1.8,2470.241,13.29,0.055,291.0
2021-03-21T07:28:03,42.805,6.029,-0.035,0.006,-0.014,108.0,108.0,104.0,13.4,1505.2,326.8,-0.7,1.8,2470.195,13.29,0.035,279.7
2021-03-21T07:31:03,42.805,6.029,-0.043,0.023,-0.01,106.0,109.0,105.0,13.4,1505.2,327.2,-0.8,1.8,2470.186,13.29,0.048,298.1
2021-03-21T07:34:03,42.805,6.029,-0.033,0.008,0.027,108.0,108.0,104.0,13.3,1505.2,326.9,-0.8,1.9,2470.227,13.29,0.033,283.6
2021-03-21T07:37:03,42.805,6.029,-0.02,0.005,-0.008,107.0,108.0,106.0,13.4,1505.2,327.1,-0.7,1.8,2470.246,13.29,0.02,284.0
2021-03-21T07:40:03,42.805,6.029,-0.05,0.022,0.039,107.0,109.0,104.0,13.4,1505.2,327.7,-0.8,1.8,2470.225,13.29,0.054,293.7
2021-03-21T07:43:03,42.805,6.029,-0.027,0.035,0.005,108.0,110.0,104.0,13.3,1505.2,327.8,-0.7,1.8,2470.241,13.29,0.044,322.3
2021-03-21T07:46:03,42.805,6.029,-0.053,0.006,-0.016,109.0,109.0,106.0,13.4,1505.2,326.7,-0.8,1.8,2470.208,13.29,0.053,276.5
2021-03-21T07:49:03,42.805,6.029,-0.034,0.015,-0.024,110.0,108.0,106.0,13.4,1505.2,327.4,-0.8,1.8,2470.185,13.29,0.037,293.8
2021-03-21T07:52:03,42.805,6.029,-0.04,0.033,-0.006,109.0,109.0,105.0,13.4,1505.2,327.5,-0.7,1.8,2470.232,13.29,0.051,309.5
2021-03-21T07:55:03,42.805,6.029,-0.041,0.028,0.019,112.0,108.0,106.0,13.4,1505.2,327.0,-0.7,1.8,2470.2,13.29,0.049,304.3
2021-03-21T07:58:03,42.805,6.029,0.007,0.003,0.006,109.0,109.0,106.0,13.4,1505.2,327.6,-0.8,1.9,2470.251,13.29,0.007,66.8
2021-03-21T08:04:03,42.805,6.029,-0.035,0.01,0.006,108.0,109.0,106.0,13.4,1505.2,327.2,-0.7,1.8,2470.264,13.28,0.036,285.9
2021-03-21T08:07:03,42.805,6.029,-0.039,0.021,0.003,108.0,109.0,105.0,13.4,1505.2,327.4,-0.8,1.8,2470.235,13.28,0.044,298.3
2021-03-21T08:10:03,42.805,6.029,-0.022,0.008,-0.014,107.0,108.0,104.0,13.4,1505.2,327.1,-0.7,1.8,2470.28,13.28,0.023,290.0
2021-03-21T08:13:03,42.805,6.029,-0.03,0.031,0.0,108.0,109.0,106.0,13.3,1505.2,327.3,-0.8,1.9,2470.251,13.28,0.043,315.9
2021-03-21T08:16:03,42.805,6.029,-0.019,0.012,-0.012,109.0,109.0,105.0,13.3,1505.2,327.5,-0.8,1.8,2470.197,13.29,0.022,302.3
2021-03-21T08:19:03,42.805,6.029,-0.005,0.019,-0.008,107.0,109.0,105.0,13.4,1505.2,327.7,-0.7,1.8,2470.228,13.29,0.019,345.3
2021-03-21T08:22:03,42.805,6.029,-0.031,0.032,-0.009,108.0,109.0,106.0,13.3,1505.2,327.3,-0.7,1.8,2470.256,13.29,0.044,315.9
2021-03-21T08:25:03,42.805,6.029,-0.049,0.014,0.017,108.0,108.0,104.0,13.3,1505.2,327.2,-0.8,1.9,2470.206,13.29,0.05,285.9
2021-03-21T08:28:03,42.805,6.029,-0.022,0.026,0.017,109.0,107.0,105.0,13.4,1505.2,327.6,-0.7,1.8,2470.22,13.29,0.034,319.8
2021-03-21T08:31:03,42.805,6.029,-0.01,0.01,0.011,108.0,108.0,105.0,13.4,1505.2,327.3,-0.8,1.9,2470.283,13.29,0.014,315.0
2021-03-21T08:34:03,42.805,6.029,-0.047,0.02,0.022,107.0,106.0,105.0,13.4,1505.2,327.4,-0.8,1.8,2470.256,13.29,0.051,293.0
2021-03-21T08:37:03,42.805,6.029,-0.032,0.008,0.013,109.0,108.0,105.0,13.3,1505.2,326.9,-0.8,1.8,2470.232,13.29,0.032,284.0
2021-03-21T08:40:03,42.805,6.029,-0.021,0.01,-0.012,109.0,108.0,106.0,13.4,1505.2,327.5,-0.7,1.8,2470.251,13.29,0.023,295.5
2021-03-21T08:43:03,42.805,6.029,-0.033,0.012,0.01,110.0,107.0,106.0,13.4,1505.2,327.2,-0.7,1.8,2470.252,13.29,0.035,290.0
2021-03-21T08:46:03,42.805,6.029,-0.044,0.031,0.026,109.0,107.0,105.0,13.4,1505.2,327.3,-0.7,1.8,2470.238,13.29,0.053,305.2
2021-03-21T08:49:03,42.805,6.029,-0.03,0.003,0.018,109.0,109.0,105.0,13.3,1505.2,327.3,-0.8,1.8,2470.243,13.29,0.03,275.7
2021-03-21T08:52:03,42.805,6.029,-0.032,0.003,-0.006,107.0,106.0,105.0,13.4,1505.2,327.8,-0.7,1.9,2470.252,13.29,0.032,275.4
2021-03-21T08:55:03,42.805,6.029,-0.029,0.003,0.009,108.0,109.0,105.0,13.3,1505.2,327.4,-0.7,1.8,2470.285,13.29,0.029,275.9
2021-03-21T08:58:03,42.805,6.029,-0.033,0.02,-0.011,107.0,108.0,105.0,13.3,1505.2,327.3,-0.8,1.8,2470.27,13.29,0.038,301.2
2021-03-21T09:04:03,42.805,6.029,-0.021,0.01,-0.001,108.0,109.0,106.0,13.3,1505.2,327.2,-0.7,1.8,2470.293,13.28,0.023,295.5
2021-03-21T09:07:03,42.805,6.029,-0.026,0.012,0.008,109.0,109.0,105.0,13.4,1505.2,327.4,-0.7,1.8,2470.244,13.28,0.028,294.8
2021-03-21T09:10:03,42.805,6.029,-0.025,0.021,0.014,109.0,109.0,107.0,13.4,1505.2,327.5,-0.8,1.8,2470.258,13.28,0.032,310.0
2021-03-21T09:13:03,42.805,6.029,-0.01,0.0,0.004,108.0,108.0,107.0,13.4,1505.2,327.1,-0.7,1.8,2470.253,13.29,0.01,270.0
2021-03-21T09:16:03,42.805,6.029,-0.027,0.03,0.023,109.0,109.0,104.0,13.4,1505.2,327.5,-0.8,1.8,2470.281,13.29,0.04,318.0
2021-03-21T09:19:03,42.805,6.029,-0.017,0.02,0.017,112.0,108.0,105.0,13.4,1505.2,327.5,-0.7,1.9,2470.263,13.29,0.026,319.6
2021-03-21T09:22:03,42.805,6.029,-0.03,-0.002,0.021,108.0,109.0,105.0,13.3,1505.2,327.1,-0.7,1.8,2470.264,13.29,0.03,266.2
2021-03-21T09:25:03,42.805,6.029,-0.02,0.018,0.002,110.0,107.0,105.0,13.3,1505.2,327.7,-0.7,1.8,2470.236,13.29,0.026,312.0
2021-03-21T09:28:03,42.805,6.029,-0.046,0.02,-0.005,107.0,110.0,105.0,13.4,1505.2,327.4,-0.7,1.8,2470.274,13.29,0.05,293.5
2021-03-21T09:31:03,42.805,6.029,-0.023,0.016,0.021,109.0,108.0,106.0,13.4,1505.2,327.4,-0.8,1.8,2470.272,13.29,0.028,304.8
2021-03-21T09:34:03,42.805,6.029,-0.037,0.009,-0.002,108.0,108.0,105.0,13.3,1505.2,327.0,-0.8,1.8,2470.263,13.29,0.038,283.7
2021-03-21T09:37:03,42.805,6.029,-0.016,0.011,0.014,109.0,109.0,104.0,13.4,1505.2,327.1,-0.7,1.8,2470.277,13.29,0.019,304.5
2021-03-21T09:40:03,42.805,6.029,-0.027,0.023,0.017,109.0,109.0,105.0,13.3,1505.2,327.7,-0.8,1.8,2470.3,13.29,0.035,310.4
2021-03-21T09:43:03,42.805,6.029,-0.028,-0.005,-0.01,109.0,106.0,106.0,13.3,1505.2,327.1,-0.8,1.8,2470.254,13.29,0.028,259.9
2021-03-21T09:46:03,42.805,6.029,-0.035,0.004,0.007,108.0,109.0,105.0,13.4,1505.2,327.4,-0.7,1.8,2470.288,13.29,0.035,276.5
2021-03-21T09:49:03,42.805,6.029,-0.03,0.001,-0.022,108.0,109.0,106.0,13.3,1505.2,327.3,-0.8,1.8,2470.275,13.29,0.03,271.9
2021-03-21T09:52:03,42.805,6.029,-0.035,0.014,-0.03,107.0,109.0,105.0,13.4,1505.2,327.0,-0.8,1.8,2470.313,13.29,0.037,291.8
2021-03-21T09:55:03,42.805,6.029,-0.033,0.01,-0.002,109.0,108.0,105.0,13.3,1505.2,327.6,-0.7,1.8,2470.278,13.29,0.034,286.9